sat.trackr.live / text

‹ back to catalog

STARLINK-4780

NORAD 53848 · 2022-114AG

PAYLOAD ACTIVE UNKNOWN

§ Identity

Operator
Country
US
Launch date
2022-09-19
Launch site
AFETR
Launch vehicle
Mass (kg)
RCS (m²)

Purposes: comms

External: N2YO · Heavens-Above · Gunter

§ Orbital elements

Epoch: 2026-09-20T22:53:49.464672Z

Period
95.44 min
Inclination
53.1589°
Eccentricity
0.0001310
Mean motion
15.08834030 rev/d
Perigee alt
538.9 km
Apogee alt
540.7 km
Semi-major
6,917.9 km
B*
2.7025e-5
RAAN
136.6141°
Arg perigee
90.8361°
Mean anomaly
269.2780°
Rev number
22,245

§ Raw data

STARLINK-47801 53848U 22114AG  26263.95404473  .00000142  00000+0  27025-4 0  99992 53848  53.1589 136.6141 0001310  90.8361 269.2780 15.08834030222456

JSON: /api/v1/satellites/53848 · /tle

For live sub-satellite position, see the globe view (requires WebGL).

§ Visibility from observer

Set your observer location to see the next 7 days of passes ≥ 10°. The values pass through the URL so the page stays shareable.

No JS? Fill the form by hand. The geolocation button needs JavaScript.